Showing default

TSAT-1A, 59442

Orbit data source: Space-Track

TSAT-1A, 59442 is a payload satellite owned by TASL (IN) in LEO that was launched on Sun, 07 Apr 2024 UTC via an FALCON 9 launch vehicle from the Air Force Eastern Test Range (AFETR). Payload-class satellites include a variety of spacecraft equipped with specific instruments for various scientific and technological missions. These include communications satellites like Starlink; space stations such as the ISS; scientific satellites like the Hubble; Earth observation satellites from companies like Planet Labs, Umbra, and HawkEye 360; GPS; miniature CubeSats for education and research; and military/defense satellites.

Loading next visibility...
Identifier
59442, 2024-066A
Orbit
LEO
Country
Flag of ININ / IND
Related business
Manufacturer
URUGUS S.A.
Mission
Operational spacecraft
Bus & Motor
NEWSAT V, Unknown motor
Mass
~42 kg wet, ~38 kg dry
Launch date (UTC)
2024-04-07 (1 year ago)
Launch vehicle
FALCON 9
Launch site
Air Force Eastern Test Range (AFETR)
Object type
Payload
Rocket body
Debris
Shape & HBR
Unknown
Radar Cross Section
Medium (>0.1 m² and <1 m²)

Expand to show TLE details & history
Last TLE update: 9 hours ago

TLE from 9 hours ago
0 TSAT-1A
1 59442U 24066A   25247.95217052  .00016269  00000-0  61095-3 0  9991
2 59442  45.6181 230.2561 0012590 323.0281  36.9743 15.27031513 78045
Epoch: 2025-09-04T22:51Z
TLE epoch observation values (Epoch: 2025-09-04T22:51:07.532Z)
Latitude
-0.00002°
Longitude
-96.83263°
Altitude
477.862 km
Speed
7.632 km/s
True Right ascension
15h 21m 01s
True Declination
0° 00' 00"
Sunlit
Object was in daylight at epoch
Visualization orbit readout
Latitude
Unknown
Longitude
Unknown
Altitude
Unknown
Speed
Unknown
Apparent Right ascension
Unknown
Apparent Declination
Unknown
Sunlit
N/A
Visualization observer readout
Local Sidereal Time
23:43:21
Azimuth
Unknown
Elevation
Unknown
Doppler factor
Unknown
Orbital elements
Apogee altitude
494.839 km
Perigee altitude
477.555 km
Semi-major axis
6,864.334 km
Eccentricity
0.00126
Inclination
45.6181°
RAAN
230.2561°
Arg. of periapsis
323.0281°
True anomaly
37.06118°
Mean anomaly
36.9743°
Eccentric anomaly
37.01773°
Mean motion
3.81633 °/min
Orbital period
94.33 mins
BSTAR
0.00061095
Loading maneuver chart data...
Computing Atmospheric mass density...
Loading historical data...
Loading historical data...
Loading historical data...
Loading historical data...
Loading historical data...
Loading historical data...
Loading historical data...

Documentation

Showing up to 5 results
|